Regional Weather Roundup
Issued by NWS

Home | Current Version | Previous Version | Text Only | Print | Product List | Glossary Off
Versions: 1 2 3 4 5 6 7 8 9 10 11 12 13 14 15 16 17 18 19 20 21 22 23 24 25 26 27 28 29 30 31 32 33 34 35 36 37 38 39 40 41 42 43 44 45 46 47 48 49 50

000
ASUS45 KSLC 250010
RWRUT

UTAH REGIONAL WEATHER ROUNDUP
NATIONAL WEATHER SERVICE SALT LAKE CITY UT
600 PM MDT TUE APR 24 2018

UTZ001>011-023>025-250100-

NORTHERN UTAH

CITY           SKY/WX    TMP DP  RH WIND       PRES   REMARKS
BRIGHAM CITY   SUNNY     64  21  19 N5        30.25S
DUGWAY         MOSUNNY   66  20  17 N3        30.23F
6HR MIN TEMP:  58; 6HR MAX TEMP:  67;

HILL AFB       NOT AVBL
LOGAN          SUNNY     61  32  33 N12       30.26S
OGDEN          SUNNY     64  27  24 VRB5      30.23S
SALT LAKE CITY MOSUNNY   66  30  26 N13       30.23S
TOOELE VALLEY  SUNNY     59  36  41 N9        30.26S
WENDOVER       SUNNY     64  18  17 E9        30.26S
HEBER CITY       N/A     61  12  15 NE6       30.23S
WEST JORDAN    SUNNY     61  34  36 NW13      30.24S

$$

UTZ011>015-024>027-250100-

CENTRAL/NORTHEAST UTAH

CITY           SKY/WX    TMP DP  RH WIND       PRES   REMARKS
PROVO AIRPORT  MOSUNNY   64  26  23 NW12      30.23S
MOAB/CANYONLAN SUNNY     69  15  12 E29G35    30.11R
DELTA          SUNNY     64  18  16 N7        30.20F
PRICE          SUNNY     63  19  18 NE20G28   30.20R
RICHFIELD      SUNNY     66  21  18 NE13G18   30.19R
ROOSEVELT      SUNNY     59  21  23 E16       30.29S
VERNAL         MOSUNNY   58  21  24 E10       30.28S

$$

UTZ013>016-019>022-027-250100-

SOUTHERN UTAH

CITY           SKY/WX    TMP DP  RH WIND       PRES   REMARKS
BRYCE CANYON   SUNNY     63  21  20 NW22G29   30.22S
CEDAR CITY     SUNNY     68  27  21 N12       30.15F
MILFORD        SUNNY     67  23  19 MISG      30.18S
ST GEORGE      CLEAR     86  25  11 NW8       29.96F
HANKSVILLE     MOSUNNY   75  19  12 NE21G29   30.10R
KANAB          SUNNY     81  19  10 NW10G17   30.09S
BLANDING         N/A     70  21  15 NW15G22   30.17R

$$

REGIONAL REPORTS     COLORADO/ARIZONA

CITY           SKY/WX    TMP DP  RH WIND       PRES   REMARKS
CRAIG, CO      SUNNY     50  22  33 NW21G28   30.30R
GRAND JUNCTION MOSUNNY   65  16  15 NE16      30.18R
RIFLE, CO      MOSUNNY   60  16  18 NW10G18   30.22R
MONTROSE, CO   MOSUNNY   62  19  19 NW22G31   30.18R
CORTEZ, CO     PTSUNNY   70  24  17 N9        30.09R
COLORADO CITY    N/A     79  21  11 NW15      30.09F
PAGE, AZ       MOSUNNY   84  19   9 W10       29.96F
GRAND CANYON   SUNNY     74  10   8 W14       30.15F
KINGMAN, AZ    SUNNY     86  23  10 W9        29.98S
FLAGSTAFF, AZ  SUNNY     70  15  12 SW13G21   30.17S

$$

REGIONAL REPORTS    NEVADA/IDAHO/WYOMING

CITY           SKY/WX    TMP DP  RH WIND       PRES   REMARKS
LAS VEGAS, NV  PTSUNNY   89  25  10 CALM      29.90F
ELY, NY        SUNNY     65  11  12 NE14      30.20F
ELKO, NV       SUNNY     68  18  14 NE12      30.19S
POCATELLO, ID  MOSUNNY   62  34  35 NE15      30.29S
BURLEY, ID     SUNNY     61  27  27 NE8G23    30.25F
FORT BRIDGER,    N/A     51  18  27 NE7       30.39R
EVANSTON, WY   SUNNY     51  19  28 E10       30.34R
ROCK SPRINGS,  MOSUNNY   45  19  35 NE15G22   30.39R
KEMMERER, WY   SUNNY     48  18  29 NE9       30.38R

$$



USA.gov is the U.S. government's official web portal to all federal, state and local government web resources and services.